Home > Weather > Itabuna > Past weeks

Flag for Brazil Weather for the Past 2 Weeks in Itabuna, Bahia, Brazil

Now
81 °F

Passing clouds.


Feels Like: 84 °F
Forecast: 69 / 91 °F
Wind: 9 mph from East

Location: Salvador Aeroporto

Current Time: Feb 7, 2016 at 9:51:48 PM

Latest Report: Feb 7, 2016 at 9:00 PM


Visibility: N/A

Pressure: 30.01 "Hg

Humidity: 70%

Dew point: 70 °F

Location of ItabunaLocation

Historic Weather in Itabuna — Graph

°F

Itabuna Temperature Yesterday

Maximum temperature yesterday: 88 °F (at 10:00 AM)
Minimum temperature yesterday: 79 °F (at 6:00 AM)
Average temperature yesterday: 84 °F

High & Low Weather Summary for the Past Weeks

 TemperatureHumidityPressure
High90 °F (Jan 28, 12:00 PM)94% (Jan 24, 5:00 AM)30.04 "Hg (Jan 24, 5:00 AM)
Low75 °F (Jan 24, 3:00 AM)55% (Jan 30, 12:00 PM)29.83 "Hg (Jan 26, 5:00 PM)
Average82 °F73%29.96 "Hg
* Reported Jan 23 8:00 PM — Feb 7 8:00 PM, Itabuna, Weather by CustomWeather, © 2016

Note: Actual official high and low records may vary slightly from our data, if they occured in-between our weather recording intervals... More about our weather records

Advertising

Itabuna Weather History for the Previous 24 Hours

 ConditionsComfort  
Time TempWeatherWind HumidityBarometerVisibility
8:00 PM
Sun, Feb 7
82 °FPassing clouds.8 mph66%29.98 "HgN/A
7:00 PM82 °FPassing clouds.8 mph66%29.95 "HgN/A
6:00 PM82 °FPassing clouds.10 mph66%29.95 "HgN/A
5:00 PM86 °FPassing clouds.10 mph59%29.95 "HgN/A
4:00 PM86 °FPassing clouds.8 mph59%29.95 "HgN/A
3:00 PM88 °FPassing clouds.10 mph55%29.95 "HgN/A
2:00 PM88 °FPassing clouds.13 mph55%29.98 "HgN/A
1:00 PM88 °FPassing clouds.12 mph55%30.01 "HgN/A
12:00 PM88 °FPassing clouds.13 mph55%30.01 "HgN/A
11:00 AM88 °FScattered clouds.8 mph59%30.04 "HgN/A
10:00 AM86 °FScattered clouds.10 mph59%30.04 "HgN/A
9:00 AM86 °FPassing clouds.12 mph59%30.04 "HgN/A
8:00 AM86 °FScattered clouds.10 mph59%30.01 "HgN/A
7:00 AM84 °FScattered clouds.8 mph62%30.01 "HgN/A
6:00 AM81 °FPassing clouds.6 mph70%29.98 "HgN/A
5:00 AM81 °FPassing clouds.6 mph70%29.98 "HgN/A
4:00 AM79 °FPassing clouds.5 mph74%29.95 "HgN/A
3:00 AM81 °FPassing clouds.6 mph74%29.98 "HgN/A
2:00 AM81 °FPassing clouds.7 mph74%29.98 "HgN/A
1:00 AM81 °FPassing clouds.8 mph74%30.01 "HgN/A
12:00 AM81 °FPassing clouds.8 mph74%30.01 "HgN/A
11:00 PM
Sat, Feb 6
81 °FPassing clouds.9 mph74%30.01 "HgN/A
10:00 PM81 °FPassing clouds.10 mph74%30.01 "HgN/A
9:00 PM82 °FPassing clouds.12 mph70%30.01 "HgN/A
Weather by CustomWeather, © 2016

See weather overviewHow to use our weather pages